Time,TemperatureF,DewpointF,PressureIn,WindDirection,WindDirectionDegrees,WindSpeedMPH,WindSpeedGustMPH,Humidity,HourlyPrecipIn,Conditions,Clouds,dailyrainin,SoftwareType,DateUTC
2013-03-16 00:02:00,67.8,42.6,29.32,North,0,0.0,0.0,40,0.00,,BKN,0.00,VWS V14.01,2013-03-16 05:02:00,
2013-03-16 00:07:00,67.8,43.3,29.32,North,0,0.0,0.0,41,0.00,,BKN,0.00,VWS V14.01,2013-03-16 05:07:00,
2013-03-16 00:12:00,67.8,43.3,29.32,North,0,0.0,0.0,41,0.00,,BKN,0.00,VWS V14.01,2013-03-16 05:12:00,
2013-03-16 00:17:00,67.8,43.3,29.32,North,0,0.0,0.0,41,0.00,,BKN,0.00,VWS V14.01,2013-03-16 05:17:00,
2013-03-16 00:22:00,67.8,43.9,29.32,North,0,0.0,0.0,42,0.00,,BKN,0.00,VWS V14.01,2013-03-16 05:22:00,
2013-03-16 00:27:00,67.8,43.9,29.32,North,0,0.0,0.0,42,0.00,,BKN,0.00,VWS V14.01,2013-03-16 05:27:00,
2013-03-16 00:32:00,67.6,43.8,29.32,North,0,0.0,0.0,42,0.00,,BKN,0.00,VWS V14.01,2013-03-16 05:32:00,
2013-03-16 00:37:00,67.6,43.8,29.32,North,0,0.0,0.0,42,0.00,,BKN,0.00,VWS V14.01,2013-03-16 05:37:00,
2013-03-16 00:42:00,67.6,43.8,29.32,North,0,0.0,0.0,42,0.00,,BKN,0.00,VWS V14.01,2013-03-16 05:42:00,
2013-03-16 00:48:00,67.5,43.6,29.32,North,0,0.0,0.0,42,0.00,,BKN,0.00,VWS V14.01,2013-03-16 05:48:00,
2013-03-16 00:53:00,67.3,43.4,29.32,North,0,0.0,0.0,42,0.00,,BKN,0.00,VWS V14.01,2013-03-16 05:53:00,
2013-03-16 00:58:00,67.1,43.3,29.32,North,0,0.0,0.0,42,0.00,,BKN,0.00,VWS V14.01,2013-03-16 05:58:00,
2013-03-16 01:03:00,66.9,43.1,29.32,North,0,0.0,0.0,42,0.00,,BKN,0.00,VWS V14.01,2013-03-16 06:03:00,
2013-03-16 01:08:00,66.9,43.1,29.32,North,0,0.0,0.0,42,0.00,,BKN,0.00,VWS V14.01,2013-03-16 06:08:00,
2013-03-16 01:13:00,66.7,42.9,29.32,North,0,0.0,0.0,42,0.00,,BKN,0.00,VWS V14.01,2013-03-16 06:13:00,
2013-03-16 01:18:00,66.7,42.9,29.32,North,0,0.0,0.0,42,0.00,,BKN,0.00,VWS V14.01,2013-03-16 06:18:00,
2013-03-16 01:23:00,66.6,42.8,29.32,North,0,0.0,0.0,42,0.00,,BKN,0.00,VWS V14.01,2013-03-16 06:23:00,
2013-03-16 01:28:00,66.4,42.6,29.32,North,0,0.0,0.0,42,0.00,,BKN,0.00,VWS V14.01,2013-03-16 06:28:00,
2013-03-16 01:33:00,66.4,42.6,29.32,North,0,0.0,0.0,42,0.00,,BKN,0.00,VWS V14.01,2013-03-16 06:33:00,
2013-03-16 01:38:00,66.2,42.5,29.32,North,0,0.0,0.0,42,0.00,,BKN,0.00,VWS V14.01,2013-03-16 06:38:00,
2013-03-16 01:43:00,66.2,42.5,29.32,North,0,0.0,0.0,42,0.00,,BKN,0.00,VWS V14.01,2013-03-16 06:43:00,
2013-03-16 01:48:00,66.2,42.5,29.29,North,0,0.0,0.0,42,0.00,,BKN,0.00,VWS V14.01,2013-03-16 06:48:00,
2013-03-16 01:53:00,66.0,42.9,29.29,North,0,0.0,0.0,43,0.00,,BKN,0.00,VWS V14.01,2013-03-16 06:53:00,
2013-03-16 01:59:00,65.8,42.7,29.29,North,0,0.0,0.0,43,0.00,,BKN,0.00,VWS V14.01,2013-03-16 06:59:00,
2013-03-16 02:04:00,65.7,42.6,29.29,North,0,0.0,0.0,43,0.00,,BKN,0.00,VWS V14.01,2013-03-16 07:04:00,
2013-03-16 02:09:00,65.5,43.0,29.29,North,0,0.0,0.0,44,0.00,,BKN,0.00,VWS V14.01,2013-03-16 07:09:00,
2013-03-16 02:14:00,65.3,42.8,29.29,North,0,0.0,0.0,44,0.00,,BKN,0.00,VWS V14.01,2013-03-16 07:14:00,
2013-03-16 02:19:00,65.3,42.8,29.29,North,0,0.0,0.0,44,0.00,,BKN,0.00,VWS V14.01,2013-03-16 07:19:00,
2013-03-16 02:24:00,65.1,43.3,29.29,North,0,0.0,0.0,45,0.00,,BKN,0.00,VWS V14.01,2013-03-16 07:24:00,
2013-03-16 02:29:00,64.9,43.7,29.29,North,0,0.0,0.0,46,0.00,,BKN,0.00,VWS V14.01,2013-03-16 07:29:00,
2013-03-16 02:34:00,64.8,43.5,29.29,North,0,0.0,0.0,46,0.00,,BKN,0.00,VWS V14.01,2013-03-16 07:34:00,
2013-03-16 02:39:00,64.6,43.9,29.29,North,0,0.0,0.0,47,0.00,,BKN,0.00,VWS V14.01,2013-03-16 07:39:00,
2013-03-16 02:44:00,64.4,44.3,29.29,North,0,0.0,0.0,48,0.00,,BKN,0.00,VWS V14.01,2013-03-16 07:44:00,
2013-03-16 02:49:00,64.2,44.7,29.29,North,0,0.0,0.0,49,0.00,,BKN,0.00,VWS V14.01,2013-03-16 07:49:00,
2013-03-16 02:54:00,64.0,44.5,29.29,North,0,0.0,0.0,49,0.00,,BKN,0.00,VWS V14.01,2013-03-16 07:54:00,
2013-03-16 02:59:00,64.0,45.0,29.29,North,0,0.0,0.0,50,0.00,,BKN,0.00,VWS V14.01,2013-03-16 07:59:00,
2013-03-16 03:04:00,63.9,44.9,29.29,North,0,0.0,0.0,50,0.00,,BKN,0.00,VWS V14.01,2013-03-16 08:04:00,
2013-03-16 03:09:00,63.7,45.2,29.29,North,0,0.0,0.0,51,0.00,,BKN,0.00,VWS V14.01,2013-03-16 08:09:00,
2013-03-16 03:14:00,63.5,45.6,29.29,North,0,0.0,0.0,52,0.00,,BKN,0.00,VWS V14.01,2013-03-16 08:14:00,
2013-03-16 03:19:00,63.3,45.4,29.29,North,0,0.0,0.0,52,0.00,,BKN,0.00,VWS V14.01,2013-03-16 08:19:00,
2013-03-16 03:24:00,63.1,45.2,29.29,North,0,0.0,0.0,52,0.00,,BKN,0.00,VWS V14.01,2013-03-16 08:24:00,
2013-03-16 03:29:00,63.0,45.6,29.29,North,0,0.0,0.0,53,0.00,,BKN,0.00,VWS V14.01,2013-03-16 08:29:00,
2013-03-16 03:35:00,63.0,45.6,29.29,North,0,0.0,0.0,53,0.00,,BKN,0.00,VWS V14.01,2013-03-16 08:35:00,
2013-03-16 03:40:00,62.8,45.9,29.29,North,0,0.0,0.0,54,0.00,,BKN,0.00,VWS V14.01,2013-03-16 08:40:00,
2013-03-16 03:45:00,62.6,45.7,29.29,North,0,0.0,0.0,54,0.00,,BKN,0.00,VWS V14.01,2013-03-16 08:45:00,
2013-03-16 03:50:00,62.4,46.5,29.29,North,0,0.0,0.0,56,0.00,,BKN,0.00,VWS V14.01,2013-03-16 08:50:00,
2013-03-16 03:55:00,62.4,46.5,29.29,North,0,0.0,0.0,56,0.00,,BKN,0.00,VWS V14.01,2013-03-16 08:55:00,
2013-03-16 04:00:00,62.2,46.8,29.29,North,0,0.0,0.0,57,0.00,,BKN,0.00,VWS V14.01,2013-03-16 09:00:00,
2013-03-16 04:05:00,62.2,46.8,29.29,North,0,0.0,0.0,57,0.00,,BKN,0.00,VWS V14.01,2013-03-16 09:05:00,
2013-03-16 04:10:00,62.1,46.7,29.29,North,0,0.0,0.0,57,0.00,,BKN,0.00,VWS V14.01,2013-03-16 09:10:00,
2013-03-16 04:15:00,61.9,47.4,29.29,North,0,0.0,0.0,59,0.00,,BKN,0.00,VWS V14.01,2013-03-16 09:15:00,
2013-03-16 04:20:00,61.9,47.4,29.29,North,0,0.0,0.0,59,0.00,,BKN,0.00,VWS V14.01,2013-03-16 09:20:00,
2013-03-16 04:25:00,61.7,47.7,29.29,North,0,0.0,0.0,60,0.00,,BKN,0.00,VWS V14.01,2013-03-16 09:25:00,
2013-03-16 04:30:00,61.5,48.0,29.29,North,0,0.0,0.0,61,0.00,,BKN,0.00,VWS V14.01,2013-03-16 09:30:00,
2013-03-16 04:35:00,61.5,48.0,29.29,North,0,0.0,0.0,61,0.00,,BKN,0.00,VWS V14.01,2013-03-16 09:35:00,
2013-03-16 04:40:00,61.3,47.8,29.29,North,0,0.0,0.0,61,0.00,,BKN,0.00,VWS V14.01,2013-03-16 09:40:00,
2013-03-16 04:45:00,61.2,48.0,29.29,North,0,0.0,0.0,62,0.00,,BKN,0.00,VWS V14.01,2013-03-16 09:45:00,
2013-03-16 04:51:00,61.2,48.5,29.29,North,0,0.0,0.0,63,0.00,,BKN,0.00,VWS V14.01,2013-03-16 09:51:00,
2013-03-16 04:56:00,61.0,48.7,29.29,North,0,0.0,0.0,64,0.00,,BKN,0.00,VWS V14.01,2013-03-16 09:56:00,
2013-03-16 05:01:00,61.0,48.7,29.29,North,0,0.0,0.0,64,0.00,,BKN,0.00,VWS V14.01,2013-03-16 10:01:00,
2013-03-16 05:07:00,60.8,49.0,29.29,North,0,0.0,0.0,65,0.00,,BKN,0.00,VWS V14.01,2013-03-16 10:07:00,
2013-03-16 05:12:00,60.6,49.2,29.29,North,0,0.0,0.0,66,0.00,,BKN,0.00,VWS V14.01,2013-03-16 10:12:00,
2013-03-16 05:17:00,60.6,49.6,29.29,North,0,0.0,0.0,67,0.00,,BKN,0.00,VWS V14.01,2013-03-16 10:17:00,
2013-03-16 05:22:00,60.4,49.8,29.29,North,0,0.0,0.0,68,0.00,,BKN,0.00,VWS V14.01,2013-03-16 10:22:00,
2013-03-16 05:27:00,60.4,49.8,29.29,North,0,0.0,0.0,68,0.00,,BKN,0.00,VWS V14.01,2013-03-16 10:27:00,
2013-03-16 05:32:00,60.4,50.2,29.26,North,0,0.0,0.0,69,0.00,,BKN,0.00,VWS V14.01,2013-03-16 10:32:00,
2013-03-16 05:37:00,60.3,50.1,29.26,North,0,0.0,0.0,69,0.00,,BKN,0.00,VWS V14.01,2013-03-16 10:37:00,
2013-03-16 05:42:00,60.1,50.3,29.26,North,0,0.0,0.0,70,0.00,,BKN,0.00,VWS V14.01,2013-03-16 10:42:00,
2013-03-16 05:47:00,60.1,50.3,29.29,North,0,0.0,0.0,70,0.00,,BKN,0.00,VWS V14.01,2013-03-16 10:47:00,
2013-03-16 05:52:00,60.1,50.7,29.29,North,0,0.0,0.0,71,0.00,,BKN,0.00,VWS V14.01,2013-03-16 10:52:00,
2013-03-16 05:58:00,60.1,50.7,29.29,North,0,0.0,0.0,71,0.00,,BKN,0.00,VWS V14.01,2013-03-16 10:58:00,
2013-03-16 06:03:00,60.1,50.7,29.26,North,0,0.0,0.0,71,0.00,,BKN,0.00,VWS V14.01,2013-03-16 11:03:00,
2013-03-16 06:08:00,59.9,50.5,29.26,North,0,0.0,0.0,71,0.00,,BKN,0.00,VWS V14.01,2013-03-16 11:08:00,
2013-03-16 06:13:00,59.9,50.9,29.26,North,0,0.0,0.0,72,0.00,,BKN,0.00,VWS V14.01,2013-03-16 11:13:00,
2013-03-16 06:18:00,59.9,50.9,29.29,North,0,0.0,0.0,72,0.00,,BKN,0.00,VWS V14.01,2013-03-16 11:18:00,
2013-03-16 06:23:00,59.7,50.7,29.29,North,0,0.0,0.0,72,0.00,,BKN,0.00,VWS V14.01,2013-03-16 11:23:00,
2013-03-16 06:28:00,59.7,50.7,29.29,North,0,0.0,0.0,72,0.00,,BKN,0.00,VWS V14.01,2013-03-16 11:28:00,
2013-03-16 06:33:00,59.7,51.1,29.29,North,0,0.0,0.0,73,0.00,,BKN,0.00,VWS V14.01,2013-03-16 11:33:00,
2013-03-16 06:38:00,59.7,51.1,29.29,North,0,0.0,0.0,73,0.00,,BKN,0.00,VWS V14.01,2013-03-16 11:38:00,
2013-03-16 06:43:00,59.7,51.1,29.29,North,0,0.0,0.0,73,0.00,,BKN,0.00,VWS V14.01,2013-03-16 11:43:00,
2013-03-16 06:48:00,59.5,50.9,29.29,North,0,0.0,0.0,73,0.00,,BKN,0.00,VWS V14.01,2013-03-16 11:48:00,
2013-03-16 06:54:00,59.5,51.3,29.29,North,0,0.0,0.0,74,0.00,,BKN,0.00,VWS V14.01,2013-03-16 11:54:00,
2013-03-16 06:59:00,59.5,51.3,29.29,North,0,0.0,0.0,74,0.00,,BKN,0.00,VWS V14.01,2013-03-16 11:59:00,
2013-03-16 07:04:00,59.5,51.3,29.29,North,0,0.0,0.0,74,0.00,,BKN,0.00,VWS V14.01,2013-03-16 12:04:00,
2013-03-16 07:09:00,59.5,51.3,29.29,North,0,0.0,0.0,74,0.00,,BKN,0.00,VWS V14.01,2013-03-16 12:09:00,
2013-03-16 07:14:00,59.4,51.1,29.29,North,0,0.0,0.0,74,0.00,,BKN,0.00,VWS V14.01,2013-03-16 12:14:00,
2013-03-16 07:19:00,59.4,51.1,29.29,North,0,0.0,0.0,74,0.00,,BKN,0.00,VWS V14.01,2013-03-16 12:19:00,
2013-03-16 07:24:00,59.4,51.1,29.29,North,0,0.0,0.0,74,0.00,,BKN,0.00,VWS V14.01,2013-03-16 12:24:00,
2013-03-16 07:29:00,59.4,51.1,29.29,North,0,0.0,0.0,74,0.00,,BKN,0.00,VWS V14.01,2013-03-16 12:29:00,
2013-03-16 07:34:00,59.4,51.1,29.26,North,0,0.0,0.0,74,0.00,,BKN,0.00,VWS V14.01,2013-03-16 12:34:00,
2013-03-16 07:39:00,59.4,51.1,29.26,North,0,0.0,0.0,74,0.00,,BKN,0.00,VWS V14.01,2013-03-16 12:39:00,
2013-03-16 07:44:00,59.2,50.5,29.26,North,0,0.0,0.0,73,0.00,,BKN,0.00,VWS V14.01,2013-03-16 12:44:00,
2013-03-16 07:50:00,59.2,50.5,29.29,North,0,0.0,0.0,73,0.00,,BKN,0.00,VWS V14.01,2013-03-16 12:50:00,
2013-03-16 07:55:00,59.2,50.5,29.29,North,0,0.0,0.0,73,0.00,,BKN,0.00,VWS V14.01,2013-03-16 12:55:00,
2013-03-16 08:00:00,59.4,50.7,29.29,North,0,0.0,0.0,73,0.00,,BKN,0.00,VWS V14.01,2013-03-16 13:00:00,
2013-03-16 08:05:00,59.4,50.7,29.29,North,0,0.0,0.0,73,0.00,,BKN,0.00,VWS V14.01,2013-03-16 13:05:00,
2013-03-16 08:10:00,59.4,50.7,29.29,North,0,0.0,0.0,73,0.00,,BKN,0.00,VWS V14.01,2013-03-16 13:10:00,
2013-03-16 08:15:00,59.5,50.9,29.29,North,0,0.0,0.0,73,0.00,,BKN,0.00,VWS V14.01,2013-03-16 13:15:00,
2013-03-16 08:20:00,59.5,50.9,29.29,North,0,0.0,0.0,73,0.00,,BKN,0.00,VWS V14.01,2013-03-16 13:20:00,
2013-03-16 08:25:00,59.7,51.1,29.29,North,0,0.0,0.0,73,0.00,,BKN,0.00,VWS V14.01,2013-03-16 13:25:00,
2013-03-16 08:30:00,59.9,51.2,29.29,North,0,0.0,0.0,73,0.00,,BKN,0.00,VWS V14.01,2013-03-16 13:30:00,
2013-03-16 08:35:00,60.1,51.0,29.29,North,0,0.0,0.0,72,0.00,,BKN,0.00,VWS V14.01,2013-03-16 13:35:00,
2013-03-16 08:40:00,60.3,51.2,29.29,North,0,0.0,0.0,72,0.00,,BKN,0.00,VWS V14.01,2013-03-16 13:40:00,
2013-03-16 08:45:00,60.4,51.4,29.29,North,0,0.0,0.0,72,0.00,,BKN,0.00,VWS V14.01,2013-03-16 13:45:00,
2013-03-16 08:50:00,60.6,51.6,29.29,North,0,0.0,0.0,72,0.00,,BKN,0.00,VWS V14.01,2013-03-16 13:50:00,
2013-03-16 08:56:00,61.0,51.9,29.29,North,0,0.0,0.0,72,0.00,,BKN,0.00,VWS V14.01,2013-03-16 13:56:00,
2013-03-16 09:01:00,61.3,51.9,29.29,North,0,0.0,0.0,71,0.00,,BKN,0.00,VWS V14.01,2013-03-16 14:01:00,
2013-03-16 09:06:00,61.5,52.0,29.29,North,0,0.0,0.0,71,0.00,,BKN,0.00,VWS V14.01,2013-03-16 14:06:00,
2013-03-16 09:11:00,61.9,52.0,29.29,North,0,0.0,0.0,70,0.00,,BKN,0.00,VWS V14.01,2013-03-16 14:11:00,
2013-03-16 09:17:00,62.2,52.0,29.29,North,0,0.0,0.0,69,0.00,,BKN,0.00,VWS V14.01,2013-03-16 14:17:00,
2013-03-16 09:22:00,62.6,51.9,29.29,North,0,0.0,0.0,68,0.00,,BKN,0.00,VWS V14.01,2013-03-16 14:22:00,
2013-03-16 09:27:00,63.0,52.2,29.29,North,0,0.0,0.0,68,0.00,,BKN,0.00,VWS V14.01,2013-03-16 14:27:00,
2013-03-16 09:32:00,63.1,52.0,29.29,North,0,0.0,0.0,67,0.00,,BKN,0.00,VWS V14.01,2013-03-16 14:32:00,
2013-03-16 09:37:00,63.5,52.4,29.29,North,0,0.0,0.0,67,0.00,,BKN,0.00,VWS V14.01,2013-03-16 14:37:00,
2013-03-16 09:42:00,63.9,52.3,29.29,North,0,0.0,0.0,66,0.00,,BKN,0.00,VWS V14.01,2013-03-16 14:42:00,
2013-03-16 09:47:00,64.2,52.6,29.29,North,0,0.0,0.0,66,0.00,,BKN,0.00,VWS V14.01,2013-03-16 14:47:00,
2013-03-16 09:53:00,64.8,52.7,29.29,North,0,0.0,0.0,65,0.00,,BKN,0.00,VWS V14.01,2013-03-16 14:53:00,
2013-03-16 09:58:00,65.3,52.8,29.29,North,0,0.0,0.0,64,0.00,,BKN,0.00,VWS V14.01,2013-03-16 14:58:00,
2013-03-16 10:03:00,65.8,52.9,29.29,North,0,0.0,0.0,63,0.00,,BKN,0.00,VWS V14.01,2013-03-16 15:03:00,
2013-03-16 10:08:00,66.2,52.8,29.29,North,0,0.0,0.0,62,0.00,,BKN,0.00,VWS V14.01,2013-03-16 15:08:00,
2013-03-16 10:13:00,66.6,52.3,29.29,North,0,0.0,0.0,60,0.00,,BKN,0.00,VWS V14.01,2013-03-16 15:13:00,
2013-03-16 10:18:00,66.7,52.0,29.29,North,0,0.0,0.0,59,0.00,,BKN,0.00,VWS V14.01,2013-03-16 15:18:00,
2013-03-16 10:23:00,67.1,52.3,29.29,North,0,0.0,0.0,59,0.00,,BKN,0.00,VWS V14.01,2013-03-16 15:23:00,
2013-03-16 10:28:00,67.6,52.3,29.29,North,0,0.0,0.0,58,0.00,,BKN,0.00,VWS V14.01,2013-03-16 15:28:00,
2013-03-16 10:33:00,68.0,52.7,29.29,North,0,0.0,0.0,58,0.00,,BKN,0.00,VWS V14.01,2013-03-16 15:33:00,
2013-03-16 10:38:00,68.7,52.4,29.29,North,0,0.0,0.0,56,0.00,,BKN,0.00,VWS V14.01,2013-03-16 15:38:00,
2013-03-16 10:43:00,69.1,52.2,29.29,North,0,0.0,0.0,55,0.00,,BKN,0.00,VWS V14.01,2013-03-16 15:43:00,
2013-03-16 10:48:00,69.3,51.9,29.29,North,0,0.0,0.0,54,0.00,,BKN,0.00,VWS V14.01,2013-03-16 15:48:00,
2013-03-16 10:54:00,69.6,52.3,29.29,North,0,0.0,0.0,54,0.00,,BKN,0.00,VWS V14.01,2013-03-16 15:54:00,
2013-03-16 10:59:00,70.0,52.1,29.29,North,0,0.0,0.0,53,0.00,,BKN,0.00,VWS V14.01,2013-03-16 15:59:00,
2013-03-16 11:04:00,70.5,51.5,29.26,North,0,0.0,0.0,51,0.00,,BKN,0.00,VWS V14.01,2013-03-16 16:04:00,
2013-03-16 11:09:00,70.7,51.2,29.26,North,0,0.0,0.0,50,0.00,,BKN,0.00,VWS V14.01,2013-03-16 16:09:00,
2013-03-16 11:14:00,71.1,51.5,29.26,North,0,0.0,0.0,50,0.00,,BKN,0.00,VWS V14.01,2013-03-16 16:14:00,
2013-03-16 11:19:00,71.6,51.5,29.29,North,0,0.0,0.0,49,0.00,,BKN,0.00,VWS V14.01,2013-03-16 16:19:00,
2013-03-16 11:24:00,72.1,51.4,29.29,North,0,0.0,0.0,48,0.00,,BKN,0.00,VWS V14.01,2013-03-16 16:24:00,
2013-03-16 11:29:00,72.5,51.2,29.29,North,0,0.0,0.0,47,0.00,,BKN,0.00,VWS V14.01,2013-03-16 16:29:00,
2013-03-16 11:34:00,72.5,50.6,29.26,North,0,0.0,0.0,46,0.00,,BKN,0.00,VWS V14.01,2013-03-16 16:34:00,
2013-03-16 11:40:00,72.7,50.7,29.26,North,0,0.0,0.0,46,0.00,,BKN,0.00,VWS V14.01,2013-03-16 16:40:00,
2013-03-16 11:45:00,72.9,50.9,29.26,North,0,0.0,0.0,46,0.00,,BKN,0.00,VWS V14.01,2013-03-16 16:45:00,
2013-03-16 11:50:00,73.6,51.0,29.26,North,0,0.0,0.0,45,0.00,,BKN,0.00,VWS V14.01,2013-03-16 16:50:00,
2013-03-16 11:55:00,73.8,50.5,29.26,North,0,0.0,0.0,44,0.00,,BKN,0.00,VWS V14.01,2013-03-16 16:55:00,
2013-03-16 12:00:00,74.1,50.8,29.26,North,0,0.0,0.0,44,0.00,,BKN,0.00,VWS V14.01,2013-03-16 17:00:00,
2013-03-16 12:05:00,74.5,51.2,29.26,North,0,0.0,0.0,44,0.00,,BKN,0.00,VWS V14.01,2013-03-16 17:05:00,
2013-03-16 12:10:00,75.2,51.2,29.26,North,0,0.0,0.0,43,0.00,,BKN,0.00,VWS V14.01,2013-03-16 17:10:00,
2013-03-16 12:15:00,75.2,51.8,29.26,North,0,0.0,0.0,44,0.00,,BKN,0.00,VWS V14.01,2013-03-16 17:15:00,
2013-03-16 12:20:00,75.6,51.5,29.26,North,0,0.0,0.0,43,0.00,,BKN,0.00,VWS V14.01,2013-03-16 17:20:00,
2013-03-16 12:25:00,76.1,52.6,29.26,North,0,0.0,0.0,44,0.00,,BKN,0.00,VWS V14.01,2013-03-16 17:25:00,
2013-03-16 12:30:00,76.5,51.7,29.23,North,0,0.0,0.0,42,0.00,,BKN,0.00,VWS V14.01,2013-03-16 17:30:00,
2013-03-16 12:36:00,76.3,51.5,29.23,North,0,0.0,0.0,42,0.00,,BKN,0.00,VWS V14.01,2013-03-16 17:36:00,
2013-03-16 12:41:00,76.3,51.5,29.23,North,0,0.0,0.0,42,0.00,,BKN,0.00,VWS V14.01,2013-03-16 17:41:00,
2013-03-16 12:47:00,77.0,52.2,29.23,North,0,0.0,0.0,42,0.00,,BKN,0.00,VWS V14.01,2013-03-16 17:47:00,
2013-03-16 12:52:00,77.2,51.0,29.23,North,0,0.0,0.0,40,0.00,,BKN,0.00,VWS V14.01,2013-03-16 17:52:00,
2013-03-16 12:57:00,77.2,51.0,29.23,North,0,0.0,0.0,40,0.00,,BKN,0.00,VWS V14.01,2013-03-16 17:57:00,
2013-03-16 13:02:00,77.5,51.3,29.23,North,0,0.0,0.0,40,0.00,,BKN,0.00,VWS V14.01,2013-03-16 18:02:00,
2013-03-16 13:07:00,78.1,51.8,29.23,North,0,0.0,0.0,40,0.00,,BKN,0.00,VWS V14.01,2013-03-16 18:07:00,
2013-03-16 13:12:00,78.4,52.1,29.23,North,0,0.0,0.0,40,0.00,,BKN,0.00,VWS V14.01,2013-03-16 18:12:00,
2013-03-16 13:18:00,78.8,52.5,29.23,North,0,0.0,0.0,40,0.00,,BKN,0.00,VWS V14.01,2013-03-16 18:18:00,
2013-03-16 13:23:00,78.8,51.8,29.23,North,0,0.0,0.0,39,0.00,,BKN,0.00,VWS V14.01,2013-03-16 18:23:00,
2013-03-16 13:28:00,79.2,51.4,29.23,North,0,0.0,0.0,38,0.00,,BKN,0.00,VWS V14.01,2013-03-16 18:28:00,
2013-03-16 13:33:00,79.3,52.3,29.23,North,0,0.0,0.0,39,0.00,,BKN,0.00,VWS V14.01,2013-03-16 18:33:00,
2013-03-16 13:38:00,79.5,51.7,29.23,North,0,0.0,0.0,38,0.00,,BKN,0.00,VWS V14.01,2013-03-16 18:38:00,
2013-03-16 13:43:00,79.7,52.6,29.23,North,0,0.0,0.0,39,0.00,,BKN,0.00,VWS V14.01,2013-03-16 18:43:00,
2013-03-16 13:48:00,79.7,52.6,29.21,North,0,0.0,0.0,39,0.00,,BKN,0.00,VWS V14.01,2013-03-16 18:48:00,
2013-03-16 13:53:00,80.1,53.6,29.21,North,0,0.0,0.0,40,0.00,,BKN,0.00,VWS V14.01,2013-03-16 18:53:00,
2013-03-16 13:58:00,80.1,52.9,29.21,North,0,0.0,0.0,39,0.00,,BKN,0.00,VWS V14.01,2013-03-16 18:58:00,
2013-03-16 14:03:00,80.1,52.2,29.21,North,0,0.0,0.0,38,0.00,,BKN,0.00,VWS V14.01,2013-03-16 19:03:00,
2013-03-16 14:08:00,80.1,52.9,29.21,North,0,0.0,0.0,39,0.00,,BKN,0.00,VWS V14.01,2013-03-16 19:08:00,
2013-03-16 14:14:00,80.2,51.6,29.21,North,0,0.0,0.0,37,0.00,,BKN,0.00,VWS V14.01,2013-03-16 19:14:00,
2013-03-16 14:19:00,80.4,52.5,29.21,North,0,0.0,0.0,38,0.00,,BKN,0.00,VWS V14.01,2013-03-16 19:19:00,
2013-03-16 14:24:00,80.6,51.2,29.21,North,0,0.0,0.0,36,0.00,,BKN,0.00,VWS V14.01,2013-03-16 19:24:00,
2013-03-16 14:29:00,80.8,52.8,29.21,North,0,0.0,0.0,38,0.00,,BKN,0.00,VWS V14.01,2013-03-16 19:29:00,
2013-03-16 14:34:00,81.3,51.8,29.18,North,0,0.0,0.0,36,0.00,,BKN,0.00,VWS V14.01,2013-03-16 19:34:00,
2013-03-16 14:39:00,81.3,51.1,29.18,North,0,0.0,0.0,35,0.00,,BKN,0.00,VWS V14.01,2013-03-16 19:39:00,
2013-03-16 14:44:00,81.5,52.0,29.18,North,0,0.0,0.0,36,0.00,,BKN,0.00,VWS V14.01,2013-03-16 19:44:00,
2013-03-16 14:49:00,81.9,51.5,29.18,North,0,0.0,0.0,35,0.00,,BKN,0.00,VWS V14.01,2013-03-16 19:49:00,
2013-03-16 14:55:00,82.2,51.9,29.18,North,0,0.0,0.0,35,0.00,,BKN,0.00,VWS V14.01,2013-03-16 19:55:00,
2013-03-16 15:00:00,82.2,51.9,29.18,North,0,0.0,0.0,35,0.00,,BKN,0.00,VWS V14.01,2013-03-16 20:00:00,
2013-03-16 15:05:00,82.2,51.9,29.18,North,0,0.0,0.0,35,0.00,,BKN,0.00,VWS V14.01,2013-03-16 20:05:00,
2013-03-16 15:10:00,82.0,52.5,29.18,North,0,0.0,0.0,36,0.00,,BKN,0.00,VWS V14.01,2013-03-16 20:10:00,
2013-03-16 15:15:00,82.4,52.0,29.18,North,0,0.0,0.0,35,0.00,,BKN,0.00,VWS V14.01,2013-03-16 20:15:00,
2013-03-16 15:20:00,82.4,52.0,29.18,North,0,0.0,0.0,35,0.00,,BKN,0.00,VWS V14.01,2013-03-16 20:20:00,
2013-03-16 15:25:00,82.2,51.9,29.18,North,0,0.0,0.0,35,0.00,,BKN,0.00,VWS V14.01,2013-03-16 20:25:00,
2013-03-16 15:30:00,82.2,51.9,29.18,North,0,0.0,0.0,35,0.00,,BKN,0.00,VWS V14.01,2013-03-16 20:30:00,
2013-03-16 15:35:00,82.2,51.9,29.18,North,0,0.0,0.0,35,0.00,,BKN,0.00,VWS V14.01,2013-03-16 20:35:00,
2013-03-16 15:40:00,82.4,51.2,29.18,North,0,0.0,0.0,34,0.00,,BKN,0.00,VWS V14.01,2013-03-16 20:40:00,
2013-03-16 15:45:00,82.6,51.4,29.15,North,0,0.0,0.0,34,0.00,,BKN,0.00,VWS V14.01,2013-03-16 20:45:00,
2013-03-16 15:51:00,82.6,51.4,29.15,North,0,0.0,0.0,34,0.00,,BKN,0.00,VWS V14.01,2013-03-16 20:51:00,
2013-03-16 15:56:00,82.6,51.4,29.15,North,0,0.0,0.0,34,0.00,,BKN,0.00,VWS V14.01,2013-03-16 20:56:00,
2013-03-16 16:02:00,82.6,50.6,29.15,North,0,0.0,0.0,33,0.00,,BKN,0.00,VWS V14.01,2013-03-16 21:02:00,
2013-03-16 16:07:00,82.9,51.7,29.15,North,0,0.0,0.0,34,0.00,,BKN,0.00,VWS V14.01,2013-03-16 21:07:00,
2013-03-16 16:12:00,83.1,51.1,29.15,North,0,0.0,0.0,33,0.00,,BKN,0.00,VWS V14.01,2013-03-16 21:12:00,
2013-03-16 16:17:00,82.9,50.9,29.15,North,0,0.0,0.0,33,0.00,,BKN,0.00,VWS V14.01,2013-03-16 21:17:00,
2013-03-16 16:22:00,83.1,51.1,29.15,North,0,0.0,0.0,33,0.00,,BKN,0.00,VWS V14.01,2013-03-16 21:22:00,
2013-03-16 16:28:00,83.3,51.2,29.15,North,0,0.0,0.0,33,0.00,,BKN,0.00,VWS V14.01,2013-03-16 21:28:00,
2013-03-16 16:33:00,83.5,52.2,29.15,North,0,0.0,0.0,34,0.00,,BKN,0.00,VWS V14.01,2013-03-16 21:33:00,
2013-03-16 16:38:00,83.5,51.4,29.15,North,0,0.0,0.0,33,0.00,,BKN,0.00,VWS V14.01,2013-03-16 21:38:00,
2013-03-16 16:43:00,82.9,50.9,29.15,North,0,0.0,0.0,33,0.00,,BKN,0.00,VWS V14.01,2013-03-16 21:43:00,
2013-03-16 16:48:00,82.6,51.4,29.15,North,0,0.0,0.0,34,0.00,,BKN,0.00,VWS V14.01,2013-03-16 21:48:00,
2013-03-16 16:53:00,82.4,51.2,29.15,North,0,0.0,0.0,34,0.00,,BKN,0.00,VWS V14.01,2013-03-16 21:53:00,
2013-03-16 16:58:00,82.6,50.6,29.15,North,0,0.0,0.0,33,0.00,,BKN,0.00,VWS V14.01,2013-03-16 21:58:00,
2013-03-16 17:03:00,82.8,50.8,29.15,North,0,0.0,0.0,33,0.00,,BKN,0.00,VWS V14.01,2013-03-16 22:03:00,
2013-03-16 17:08:00,82.9,50.9,29.15,North,0,0.0,0.0,33,0.00,,BKN,0.00,VWS V14.01,2013-03-16 22:08:00,
2013-03-16 17:13:00,82.8,50.8,29.15,North,0,0.0,0.0,33,0.00,,BKN,0.00,VWS V14.01,2013-03-16 22:13:00,
2013-03-16 17:19:00,82.6,50.6,29.15,North,0,0.0,0.0,33,0.00,,BKN,0.00,VWS V14.01,2013-03-16 22:19:00,
2013-03-16 17:24:00,81.9,50.0,29.15,North,0,0.0,0.0,33,0.00,,BKN,0.00,VWS V14.01,2013-03-16 22:24:00,
2013-03-16 17:29:00,81.3,50.3,29.15,North,0,0.0,0.0,34,0.00,,BKN,0.00,VWS V14.01,2013-03-16 22:29:00,
2013-03-16 17:34:00,80.8,49.8,29.15,North,0,0.0,0.0,34,0.00,,BKN,0.00,VWS V14.01,2013-03-16 22:34:00,
2013-03-16 17:39:00,80.8,49.8,29.15,North,0,0.0,0.0,34,0.00,,BKN,0.00,VWS V14.01,2013-03-16 22:39:00,
2013-03-16 17:44:00,80.8,49.8,29.15,North,0,0.0,0.0,34,0.00,,BKN,0.00,VWS V14.01,2013-03-16 22:44:00,
2013-03-16 17:49:00,81.0,50.0,29.12,North,0,0.0,0.0,34,0.00,,BKN,0.00,VWS V14.01,2013-03-16 22:49:00,
2013-03-16 17:54:00,81.1,49.3,29.12,North,0,0.0,0.0,33,0.00,,BKN,0.00,VWS V14.01,2013-03-16 22:54:00,
2013-03-16 18:00:00,81.1,49.3,29.12,North,0,0.0,0.0,33,0.00,,BKN,0.00,VWS V14.01,2013-03-16 23:00:00,
2013-03-16 18:05:00,81.1,49.3,29.12,North,0,0.0,0.0,33,0.00,,BKN,0.00,VWS V14.01,2013-03-16 23:05:00,
2013-03-16 18:10:00,80.8,48.2,29.12,North,0,0.0,0.0,32,0.00,,BKN,0.00,VWS V14.01,2013-03-16 23:10:00,
2013-03-16 18:15:00,80.2,48.5,29.12,North,0,0.0,0.0,33,0.00,,BKN,0.00,VWS V14.01,2013-03-16 23:15:00,
2013-03-16 18:20:00,80.1,48.4,29.12,North,0,0.0,0.0,33,0.00,,BKN,0.00,VWS V14.01,2013-03-16 23:20:00,
2013-03-16 18:25:00,79.9,48.2,29.12,North,0,0.0,0.0,33,0.00,,BKN,0.00,VWS V14.01,2013-03-16 23:25:00,
2013-03-16 18:30:00,79.5,47.9,29.12,North,0,0.0,0.0,33,0.00,,BKN,0.00,VWS V14.01,2013-03-16 23:30:00,
2013-03-16 18:35:00,79.3,48.6,29.12,North,0,0.0,0.0,34,0.00,,BKN,0.00,VWS V14.01,2013-03-16 23:35:00,
2013-03-16 18:40:00,79.2,48.4,29.12,North,0,0.0,0.0,34,0.00,,BKN,0.00,VWS V14.01,2013-03-16 23:40:00,
2013-03-16 18:45:00,79.2,48.4,29.12,North,0,0.0,0.0,34,0.00,,BKN,0.00,VWS V14.01,2013-03-16 23:45:00,
2013-03-16 18:50:00,79.0,48.2,29.12,North,0,0.0,0.0,34,0.00,,BKN,0.00,VWS V14.01,2013-03-16 23:50:00,
2013-03-16 18:55:00,78.8,48.1,29.12,North,0,0.0,0.0,34,0.00,,BKN,0.00,VWS V14.01,2013-03-16 23:55:00,
2013-03-16 19:00:00,78.6,47.9,29.12,North,0,0.0,0.0,34,0.00,,BKN,0.00,VWS V14.01,2013-03-17 00:00:00,
2013-03-16 19:05:00,78.4,47.8,29.12,North,0,0.0,0.0,34,0.00,,BKN,0.00,VWS V14.01,2013-03-17 00:05:00,
2013-03-16 19:11:00,78.3,47.6,29.12,North,0,0.0,0.0,34,0.00,,BKN,0.00,VWS V14.01,2013-03-17 00:11:00,
2013-03-16 19:16:00,78.1,47.5,29.12,North,0,0.0,0.0,34,0.00,,BKN,0.00,VWS V14.01,2013-03-17 00:16:00,
2013-03-16 19:21:00,77.9,47.3,29.12,North,0,0.0,0.0,34,0.00,,BKN,0.00,VWS V14.01,2013-03-17 00:21:00,
2013-03-16 19:26:00,77.7,47.1,29.12,North,0,0.0,0.0,34,0.00,,BKN,0.00,VWS V14.01,2013-03-17 00:26:00,
2013-03-16 19:31:00,77.4,47.6,29.12,North,0,0.0,0.0,35,0.00,,BKN,0.00,VWS V14.01,2013-03-17 00:31:00,
2013-03-16 19:36:00,77.2,47.4,29.12,North,0,0.0,0.0,35,0.00,,BKN,0.00,VWS V14.01,2013-03-17 00:36:00,
2013-03-16 19:41:00,77.0,48.0,29.12,North,0,0.0,0.0,36,0.00,,BKN,0.00,VWS V14.01,2013-03-17 00:41:00,
2013-03-16 19:46:00,76.8,47.9,29.12,North,0,0.0,0.0,36,0.00,,BKN,0.00,VWS V14.01,2013-03-17 00:46:00,
2013-03-16 19:51:00,76.6,48.4,29.12,North,0,0.0,0.0,37,0.00,,BKN,0.00,VWS V14.01,2013-03-17 00:51:00,
2013-03-16 19:57:00,76.5,48.3,29.12,North,0,0.0,0.0,37,0.00,,BKN,0.00,VWS V14.01,2013-03-17 00:57:00,
2013-03-16 20:02:00,76.3,48.1,29.15,North,0,0.0,0.0,37,0.00,,BKN,0.00,VWS V14.01,2013-03-17 01:02:00,
2013-03-16 20:07:00,76.1,48.0,29.15,North,0,0.0,0.0,37,0.00,,BKN,0.00,VWS V14.01,2013-03-17 01:07:00,
2013-03-16 20:12:00,75.9,47.8,29.15,North,0,0.0,0.0,37,0.00,,BKN,0.00,VWS V14.01,2013-03-17 01:12:00,
2013-03-16 20:17:00,75.7,47.7,29.15,North,0,0.0,0.0,37,0.00,,BKN,0.00,VWS V14.01,2013-03-17 01:17:00,
2013-03-16 20:22:00,75.7,47.7,29.15,North,0,0.0,0.0,37,0.00,,BKN,0.00,VWS V14.01,2013-03-17 01:22:00,
2013-03-16 20:27:00,75.6,47.5,29.15,North,0,0.0,0.0,37,0.00,,BKN,0.00,VWS V14.01,2013-03-17 01:27:00,
2013-03-16 20:32:00,75.6,47.5,29.15,North,0,0.0,0.0,37,0.00,,BKN,0.00,VWS V14.01,2013-03-17 01:32:00,
2013-03-16 20:37:00,75.4,47.3,29.15,North,0,0.0,0.0,37,0.00,,BKN,0.00,VWS V14.01,2013-03-17 01:37:00,
2013-03-16 20:42:00,75.2,47.2,29.15,North,0,0.0,0.0,37,0.00,,BKN,0.00,VWS V14.01,2013-03-17 01:42:00,
2013-03-16 20:47:00,75.0,47.7,29.15,North,0,0.0,0.0,38,0.00,,BKN,0.00,VWS V14.01,2013-03-17 01:47:00,
2013-03-16 20:52:00,74.8,47.6,29.15,North,0,0.0,0.0,38,0.00,,BKN,0.00,VWS V14.01,2013-03-17 01:52:00,
2013-03-16 20:57:00,74.7,47.4,29.15,North,0,0.0,0.0,38,0.00,,BKN,0.00,VWS V14.01,2013-03-17 01:57:00,
2013-03-16 21:02:00,74.7,47.4,29.15,North,0,0.0,0.0,38,0.00,,BKN,0.00,VWS V14.01,2013-03-17 02:02:00,
2013-03-16 21:07:00,74.5,47.2,29.15,North,0,0.0,0.0,38,0.00,,BKN,0.00,VWS V14.01,2013-03-17 02:07:00,
2013-03-16 21:13:00,74.3,47.8,29.15,North,0,0.0,0.0,39,0.00,,BKN,0.00,VWS V14.01,2013-03-17 02:13:00,
2013-03-16 21:18:00,74.1,47.6,29.15,North,0,0.0,0.0,39,0.00,,BKN,0.00,VWS V14.01,2013-03-17 02:18:00,
2013-03-16 21:23:00,73.9,47.5,29.15,North,0,0.0,0.0,39,0.00,,BKN,0.00,VWS V14.01,2013-03-17 02:23:00,
2013-03-16 21:28:00,73.8,47.3,29.15,North,0,0.0,0.0,39,0.00,,BKN,0.00,VWS V14.01,2013-03-17 02:28:00,
2013-03-16 21:33:00,73.8,47.3,29.15,North,0,0.0,0.0,39,0.00,,BKN,0.00,VWS V14.01,2013-03-17 02:33:00,
2013-03-16 21:38:00,73.6,47.1,29.15,North,0,0.0,0.0,39,0.00,,BKN,0.00,VWS V14.01,2013-03-17 02:38:00,
2013-03-16 21:43:00,73.6,47.1,29.15,North,0,0.0,0.0,39,0.00,,BKN,0.00,VWS V14.01,2013-03-17 02:43:00,
2013-03-16 21:48:00,73.4,47.0,29.15,North,0,0.0,0.0,39,0.00,,BKN,0.00,VWS V14.01,2013-03-17 02:48:00,
2013-03-16 21:53:00,73.4,47.0,29.15,North,0,0.0,0.0,39,0.00,,BKN,0.00,VWS V14.01,2013-03-17 02:53:00,
2013-03-16 21:58:00,73.2,47.5,29.15,North,0,0.0,0.0,40,0.00,,BKN,0.00,VWS V14.01,2013-03-17 02:58:00,
2013-03-16 22:03:00,73.0,47.3,29.15,North,0,0.0,0.0,40,0.00,,BKN,0.00,VWS V14.01,2013-03-17 03:03:00,
2013-03-16 22:09:00,73.0,47.3,29.15,North,0,0.0,0.0,40,0.00,,BKN,0.00,VWS V14.01,2013-03-17 03:09:00,
2013-03-16 22:14:00,72.9,47.2,29.15,North,0,0.0,0.0,40,0.00,,BKN,0.00,VWS V14.01,2013-03-17 03:14:00,
2013-03-16 22:19:00,72.7,47.7,29.15,North,0,0.0,0.0,41,0.00,,BKN,0.00,VWS V14.01,2013-03-17 03:19:00,
2013-03-16 22:24:00,72.5,47.5,29.15,North,0,0.0,0.0,41,0.00,,BKN,0.00,VWS V14.01,2013-03-17 03:24:00,
2013-03-16 22:29:00,72.3,48.0,29.15,North,0,0.0,0.0,42,0.00,,BKN,0.00,VWS V14.01,2013-03-17 03:29:00,
2013-03-16 22:34:00,72.1,47.8,29.15,North,0,0.0,0.0,42,0.00,,BKN,0.00,VWS V14.01,2013-03-17 03:34:00,
2013-03-16 22:39:00,72.1,48.4,29.15,North,0,0.0,0.0,43,0.00,,BKN,0.00,VWS V14.01,2013-03-17 03:39:00,
2013-03-16 22:44:00,72.0,48.9,29.15,North,0,0.0,0.0,44,0.00,,BKN,0.00,VWS V14.01,2013-03-17 03:44:00,
2013-03-16 22:49:00,71.8,48.7,29.15,North,0,0.0,0.0,44,0.00,,BKN,0.00,VWS V14.01,2013-03-17 03:49:00,
2013-03-16 22:54:00,71.6,49.2,29.15,North,0,0.0,0.0,45,0.00,,BKN,0.00,VWS V14.01,2013-03-17 03:54:00,
2013-03-16 22:59:00,71.4,49.6,29.15,North,0,0.0,0.0,46,0.00,,BKN,0.00,VWS V14.01,2013-03-17 03:59:00,
2013-03-16 23:00:00,71.4,49.6,29.15,North,0,0.0,0.0,46,0.00,,BKN,0.00,VWS V14.01,2013-03-17 04:00:00,
2013-03-16 23:01:00,71.4,49.6,29.15,North,0,0.0,0.0,46,0.00,,BKN,0.00,VWS V14.01,2013-03-17 04:01:00,
2013-03-16 23:02:00,71.4,49.6,29.15,North,0,0.0,0.0,46,0.00,,BKN,0.00,VWS V14.01,2013-03-17 04:02:00,
2013-03-16 23:07:00,71.2,50.0,29.15,North,0,0.0,0.0,47,0.00,,BKN,0.00,VWS V14.01,2013-03-17 04:07:00,
2013-03-16 23:12:00,71.1,50.4,29.15,North,0,0.0,0.0,48,0.00,,BKN,0.00,VWS V14.01,2013-03-17 04:12:00,
2013-03-16 23:18:00,70.9,50.8,29.15,North,0,0.0,0.0,49,0.00,,BKN,0.00,VWS V14.01,2013-03-17 04:18:00,
2013-03-16 23:23:00,70.7,51.2,29.15,North,0,0.0,0.0,50,0.00,,BKN,0.00,VWS V14.01,2013-03-17 04:23:00,
2013-03-16 23:28:00,70.7,52.2,29.15,North,0,0.0,0.0,52,0.00,,BKN,0.00,VWS V14.01,2013-03-17 04:28:00,
2013-03-16 23:33:00,70.5,52.6,29.15,North,0,0.0,0.0,53,0.00,,BKN,0.00,VWS V14.01,2013-03-17 04:33:00,
2013-03-16 23:38:00,70.5,53.1,29.15,North,0,0.0,0.0,54,0.00,,BKN,0.00,VWS V14.01,2013-03-17 04:38:00,
2013-03-16 23:43:00,70.3,52.9,29.15,North,0,0.0,0.0,54,0.00,,BKN,0.00,VWS V14.01,2013-03-17 04:43:00,
2013-03-16 23:48:00,70.3,53.9,29.18,North,0,0.0,0.0,56,0.00,,BKN,0.00,VWS V14.01,2013-03-17 04:48:00,
2013-03-16 23:53:00,70.2,54.2,29.18,North,0,0.0,0.0,57,0.00,,BKN,0.00,VWS V14.01,2013-03-17 04:53:00,
2013-03-16 23:58:00,70.0,54.5,29.18,North,0,0.0,0.0,58,0.00,,BKN,0.00,VWS V14.01,2013-03-17 04:58:00,